Hourly Data Report for October 22, 2016

All times are specified in Local Standard Time (LST). Add 1 hour to adjust for Daylight Saving Time where and when it is observed.

FREDERICTON
NEW BRUNSWICK

45°52'08.000" N
66°32'14.000" W
20.70 m
8101505
71700
YFC

Download Data

Hourly Data (October 2016)
Hourly Data Report for October 22, 2016
Temp Definition
°C
Dew Point Temp Definition
°C
Rel Hum Definition
%
Wind Dir Definition
10's deg

Wind Spd Definition
km/h
Visibility Definition
km
Stn Press Definition
kPa
Hmdx Definition


Wind Chill Definition


Weather Definition


TIME
00:00 Legend Double Dagger 16.0 15.5 97 7 17 16.1 100.25     LegendNANA
01:00 Legend Double Dagger 15.9 15.4 97 6 17 12.9 100.12     LegendNANA
02:00 Legend Double Dagger 16.1 15.6 97 7 13 12.9 99.99     Rain
03:00 Legend Double Dagger 16.3 15.8 97 5 11 6.4 99.80     Moderate Rain,Fog
04:00 Legend Double Dagger 16.4 15.9 97 6 22 4.8 99.64     Moderate Rain,Fog
05:00 Legend Double Dagger 16.4 15.9 97 6 22 16.1 99.40     LegendNANA
06:00 Legend Double Dagger 16.2 15.6 96 6 28 4.8 99.26     Rain,Fog
07:00 Legend Double Dagger 16.0 15.4 96 6 22 4.8 99.11     Rain,Fog
08:00 Legend Double Dagger 16.1 15.6 97 5 17 4.8 99.04     Rain,Fog
09:00 Legend Double Dagger 16.3 15.8 97 6 11 4.8 98.96     Fog
10:00 Legend Double Dagger 16.6 16.3 98 6 11 2.8 98.89     Rain,Fog
11:00 Legend Double Dagger 16.9 16.6 98 7 15 3.2 98.83     Rain,Fog
12:00 Legend Double Dagger 17.4 16.9 97 5 11 6.4 98.77     Fog
13:00 Legend Double Dagger 17.6 17.3 98 5 11 2.8 98.65     Rain,Fog
14:00 Legend Double Dagger 17.6 17.3 98 8 9 11.3 98.57     Rain
15:00 Legend Double Dagger 18.1 17.8 98 7 5 16.1 98.48     LegendNANA
16:00 Legend Double Dagger 18.6 18.1 97 9 4 16.1 98.39     LegendNANA
17:00 Legend Double Dagger 18.5 18.2 98 8 5 4.8 98.32     Rain,Fog
18:00 Legend Double Dagger 18.2 17.9 98 8 8 16.1 98.34     LegendNANA
19:00 Legend Double Dagger 19.2 18.2 94 16 21 9.7 98.34     Rain,Fog
20:00 Legend Double Dagger 17.9 16.8 93 18 24 16.1 98.39     LegendNANA
21:00 Legend Double Dagger 16.5 15.4 93 17 18 16.1 98.46     LegendNANA
22:00 Legend Double Dagger 16.2 14.6 90 17 26 16.1 98.53     LegendNANA
23:00 Legend Double Dagger 14.4 12.2 87 17 28 16.1 98.56     LegendNANA

Notes on Data Quality.

Legend

  • E = Estimated
  • M = Missing
  • NA = Not Available
  • ‡ = Partner data that is not subject to review by the National Climate Archives
Date modified: